M/V C0sta Favolosa — ICPK — position and weather

sailwx.info

Track history (hours):
 
Tides and Currents Weather Stations Pressure Air Temp Water Temp Dewpoint Dewpoint Depression Visibility Wind Speed Wind Dir Waves Ship Positions

M/V C0sta Favolosa

Last reported at 2017-Mar-23 17:32 UTC. Time now 2017-Mar-23 18:23 UTC.
Position N 17°07' W 061°51'.

Length 289 m; draft 8.3 m.

Type: Ship. MMSI: 247311100.

Date/timePositionNaut miles runAvg speedWind from/ knotsBaromVisibWave heightAir tempDewpointWater temp
2017-Mar-23 17:32N 17°07' W 061°51'0 0.0
2017-Mar-23 16:32N 17°07' W 061°51'0 0.0
2017-Mar-23 15:32N 17°07' W 061°51'0 0.0
2017-Mar-23 14:32N 17°07' W 061°51'0 0.0
2017-Mar-23 13:32N 17°07' W 061°51'0 0.0
2017-Mar-23 12:32N 17°07' W 061°51'0 0.0
2017-Mar-23 11:32N 17°07' W 061°51'0 0.1
2017-Mar-23 10:33N 17°07' W 061°51'8 8.2
2017-Mar-23 09:33N 17°10' W 061°59'9 8.6
2017-Mar-23 08:33N 17°09' W 062°08'1212.1
2017-Mar-23 07:33N 16°59' W 062°14'1211.9
2017-Mar-23 06:33N 16°50' W 062°22'1111.1
2017-Mar-23 05:33N 16°43' W 062°31'  
2017-Mar-19 11:30N 16°43' W 062°36'2122.5
2017-Mar-19 10:33N 16°27' W 062°21'4622.0
2017-Mar-19 08:29N 15°54' W 061°48'1919.8
2017-Mar-19 07:32N 16°02' W 061°30'1110.8
2017-Mar-19 06:33N 16°13' W 061°32'2 1.6
2017-Mar-19 05:29N 16°14' W 061°32'0 0.0
2017-Mar-19 04:32N 16°14' W 061°32'0 0.0
2017-Mar-19 03:23N 16°14' W 061°32'0 0.0
2017-Mar-19 02:26N 16°14' W 061°32'0 0.0
2017-Mar-19 01:29N 16°14' W 061°32'0 0.0
2017-Mar-19 00:26N 16°14' W 061°32'0 0.0
2017-Mar-18 23:32N 16°14' W 061°32'0 0.0
2017-Mar-18 22:32N 16°14' W 061°32'0 0.0
2017-Mar-18 21:32N 16°14' W 061°32'0 0.0
2017-Mar-18 20:32N 16°14' W 061°32'0 0.0
2017-Mar-18 19:32N 16°14' W 061°32'0 0.0
2017-Mar-18 18:32N 16°14' W 061°32'0 0.0
2017-Mar-18 17:32N 16°14' W 061°32'0 0.0
2017-Mar-18 16:32N 16°14' W 061°32'0 0.0
2017-Mar-18 15:34N 16°14' W 061°32'0 0.0
2017-Mar-18 14:33N 16°14' W 061°32'0 0.0
2017-Mar-18 13:34N 16°14' W 061°32'0 0.0
2017-Mar-18 12:33N 16°14' W 061°32'0 0.0
2017-Mar-18 11:33N 16°14' W 061°32'5 4.8
2017-Mar-18 10:33N 16°09' W 061°32'1412.9
2017-Mar-18 09:28N 15°56' W 061°29'2211.7
2017-Mar-18 07:33N 15°37' W 061°42'1411.5
2017-Mar-18 06:21N 15°23' W 061°43'1211.8
2017-Mar-18 05:19N 15°12' W 061°38'14 0.7
2017-Mar-17 08:15N 14°59' W 061°33'1012.5
2017-Mar-17 07:27N 15°08' W 061°37'5212.5
2017-Mar-17 03:19N 15°56' W 061°58'1113.0
2017-Mar-17 02:29N 16°06' W 062°01'1617.7
2017-Mar-17 01:33N 16°23' W 062°02'1817.6
2017-Mar-17 00:33N 16°40' W 062°04'1817.6
2017-Mar-16 23:33N 16°58' W 062°04'1313.5
2017-Mar-16 22:33N 17°09' W 061°56'5 4.6
2017-Mar-16 21:29N 17°07' W 061°51'0 0.0
2017-Mar-16 20:29N 17°07' W 061°51'0 0.0
2017-Mar-16 19:32N 17°07' W 061°51'0 0.0
2017-Mar-16 18:32N 17°07' W 061°51'0 0.0
2017-Mar-16 17:32N 17°07' W 061°51'0 0.0
2017-Mar-16 16:32N 17°07' W 061°51'0 0.0
2017-Mar-16 15:32N 17°07' W 061°51'0 0.0
2017-Mar-16 14:32N 17°07' W 061°51'0 0.0
2017-Mar-16 13:32N 17°07' W 061°51'0 0.0
2017-Mar-16 12:32N 17°07' W 061°51'0 0.0
2017-Mar-16 11:32N 17°07' W 061°51'0 0.1
2017-Mar-16 10:33N 17°07' W 061°51'9 8.8
2017-Mar-16 09:33N 17°11' W 061°59'1312.9
2017-Mar-16 08:33N 17°03' W 062°10'1211.2
2017-Mar-16 07:31N 16°55' W 062°19'1111.3
2017-Mar-16 06:33N 16°46' W 062°25'1111.3
2017-Mar-16 05:33N 16°42' W 062°36'  
Track history (hours):
 
Tides and Currents Weather Stations Pressure Air Temp Water Temp Dewpoint Dewpoint Depression Visibility Wind Speed Wind Dir Waves Ship Positions

M/V C0sta Favolosa

Last reported at 2017-Mar-23 17:32 UTC. Time now 2017-Mar-23 18:23 UTC.
Position N 17°07' W 061°51'.

Length 289 m; draft 8.3 m.

Type: Ship. MMSI: 247311100.

Date/timePositionNaut miles runAvg speedWind from/ knotsBaromVisibWave heightAir tempDewpointWater temp
2017-Mar-23 17:32N 17°07' W 061°51'0 0.0
2017-Mar-23 16:32N 17°07' W 061°51'0 0.0
2017-Mar-23 15:32N 17°07' W 061°51'0 0.0
2017-Mar-23 14:32N 17°07' W 061°51'0 0.0
2017-Mar-23 13:32N 17°07' W 061°51'0 0.0
2017-Mar-23 12:32N 17°07' W 061°51'0 0.0
2017-Mar-23 11:32N 17°07' W 061°51'0 0.1
2017-Mar-23 10:33N 17°07' W 061°51'8 8.2
2017-Mar-23 09:33N 17°10' W 061°59'9 8.6
2017-Mar-23 08:33N 17°09' W 062°08'1212.1
2017-Mar-23 07:33N 16°59' W 062°14'1211.9
2017-Mar-23 06:33N 16°50' W 062°22'1111.1
2017-Mar-23 05:33N 16°43' W 062°31'  
2017-Mar-19 11:30N 16°43' W 062°36'2122.5
2017-Mar-19 10:33N 16°27' W 062°21'4622.0
2017-Mar-19 08:29N 15°54' W 061°48'1919.8
2017-Mar-19 07:32N 16°02' W 061°30'1110.8
2017-Mar-19 06:33N 16°13' W 061°32'2 1.6
2017-Mar-19 05:29N 16°14' W 061°32'0 0.0
2017-Mar-19 04:32N 16°14' W 061°32'0 0.0
2017-Mar-19 03:23N 16°14' W 061°32'0 0.0
2017-Mar-19 02:26N 16°14' W 061°32'0 0.0
2017-Mar-19 01:29N 16°14' W 061°32'0 0.0
2017-Mar-19 00:26N 16°14' W 061°32'0 0.0
2017-Mar-18 23:32N 16°14' W 061°32'0 0.0
2017-Mar-18 22:32N 16°14' W 061°32'0 0.0
2017-Mar-18 21:32N 16°14' W 061°32'0 0.0
2017-Mar-18 20:32N 16°14' W 061°32'0 0.0
2017-Mar-18 19:32N 16°14' W 061°32'0 0.0
2017-Mar-18 18:32N 16°14' W 061°32'0 0.0
2017-Mar-18 17:32N 16°14' W 061°32'0 0.0
2017-Mar-18 16:32N 16°14' W 061°32'0 0.0
2017-Mar-18 15:34N 16°14' W 061°32'0 0.0
2017-Mar-18 14:33N 16°14' W 061°32'0 0.0
2017-Mar-18 13:34N 16°14' W 061°32'0 0.0
2017-Mar-18 12:33N 16°14' W 061°32'0 0.0
2017-Mar-18 11:33N 16°14' W 061°32'5 4.8
2017-Mar-18 10:33N 16°09' W 061°32'1412.9
2017-Mar-18 09:28N 15°56' W 061°29'2211.7
2017-Mar-18 07:33N 15°37' W 061°42'1411.5
2017-Mar-18 06:21N 15°23' W 061°43'1211.8
2017-Mar-18 05:19N 15°12' W 061°38'14 0.7
2017-Mar-17 08:15N 14°59' W 061°33'1012.5
2017-Mar-17 07:27N 15°08' W 061°37'5212.5
2017-Mar-17 03:19N 15°56' W 061°58'1113.0
2017-Mar-17 02:29N 16°06' W 062°01'1617.7
2017-Mar-17 01:33N 16°23' W 062°02'1817.6
2017-Mar-17 00:33N 16°40' W 062°04'1817.6
2017-Mar-16 23:33N 16°58' W 062°04'1313.5
2017-Mar-16 22:33N 17°09' W 061°56'5 4.6
2017-Mar-16 21:29N 17°07' W 061°51'0 0.0
2017-Mar-16 20:29N 17°07' W 061°51'0 0.0
2017-Mar-16 19:32N 17°07' W 061°51'0 0.0
2017-Mar-16 18:32N 17°07' W 061°51'0 0.0
2017-Mar-16 17:32N 17°07' W 061°51'0 0.0
2017-Mar-16 16:32N 17°07' W 061°51'0 0.0
2017-Mar-16 15:32N 17°07' W 061°51'0 0.0
2017-Mar-16 14:32N 17°07' W 061°51'0 0.0
2017-Mar-16 13:32N 17°07' W 061°51'0 0.0
2017-Mar-16 12:32N 17°07' W 061°51'0 0.0
2017-Mar-16 11:32N 17°07' W 061°51'0 0.1
2017-Mar-16 10:33N 17°07' W 061°51'9 8.8
2017-Mar-16 09:33N 17°11' W 061°59'1312.9
2017-Mar-16 08:33N 17°03' W 062°10'1211.2
2017-Mar-16 07:31N 16°55' W 062°19'1111.3
2017-Mar-16 06:33N 16°46' W 062°25'1111.3
2017-Mar-16 05:33N 16°42' W 062°36'  

Dump ship's entire track history